Regional Weather Roundup
Issued by NWS

Home | Current Version | Previous Version | Text Only | Print | Product List | Glossary Off
Versions: 1 2 3 4 5 6 7 8 9 10 11 12 13 14 15 16 17 18 19 20 21 22 23 24 25 26 27 28 29 30 31 32 33 34 35 36 37 38 39 40 41 42 43 44 45 46 47 48 49 50

000
ASUS43 KMPX 250201
RWRMN
WEATHER ROUNDUP FOR MINNESOTA
NATIONAL WEATHER SERVICE TWIN CITIES/CHANHASSEN MN
800 PM CST SAT FEB 24 2018


NOTE: "FAIR" INDICATES FEW OR NO CLOUDS BELOW 12,000 FEET WITH NO
SIGNIFICANT WEATHER AND/OR OBSTRUCTIONS TO VISIBILITY. N/A MEANS
CURRENT SKY AND/OR WEATHER CONDITIONS ARE NOT AVAILABLE.

MNZ060>063-068>070-250300-
   Twin Cities Metro

CITY           SKY/WX    TMP DP  RH WIND       PRES   REMARKS
TWIN CITIES    SNOW      29  29 100 E6        29.56F VSB 1/2 WCI  23
ST PAUL        SNOW      29  28  96 E3        29.57F VSB 1/2
CRYSTAL        SNOW      28  26  92 E3        29.55F VSB 1/2
BLAINE         LGT SNOW  30  30 100 E5        29.55F VSB 3/4 WCI  25
LAKEVILLE      SNOW      27  27 100 CALM      29.56S VSB 1/2
EDEN PRAIRIE   SNOW      28  26  92 NE6       29.54F VSB 1/2 WCI  22
SOUTH ST PAUL  MIX PCPN  30  29  99 CALM      29.55F VSB 1
$$
MNZ001>005-007-008-013>017-022>024-027-028-250300-
   Northwest Minnesota

CITY           SKY/WX    TMP DP  RH WIND       PRES   REMARKS
BEMIDJI        LGT SNOW  19  17  93 E7        29.62F WCI   9
HALLOCK        LGT SNOW  18  16  93 SE6       29.70F WCI   9
ROSEAU         MOCLDY    21  12  68 CALM      29.69F
WARROAD        FAIR      21  12  68 E5        29.69F WCI  15
THIEF RVR FALL LGT SNOW  19  16  88 E7        29.67F FOG     WCI  10
CROOKSTON      LGT SNOW  19  19 100 E7        29.67F WCI  10
FOSSTON        LGT SNOW  18  12  79 NE6       29.64F VSB 3/4 WCI   9
DETROIT LAKES  LGT SNOW  21  21 100 E5        29.61F WCI  15
MOORHEAD       LGT SNOW  19  18  93 N6        29.65F WCI  11
PARK RAPIDS    LGT SNOW  20  16  84 NE7       29.59F VSB 3/4 WCI  11
MAHNOMEN       LGT SNOW  19  18  93 NE8       29.62F WCI   9
$$
MNZ006-009>011-018-025>026-250300-
   North Central Minnesota

CITY           SKY/WX    TMP DP  RH WIND       PRES   REMARKS
BAUDETTE       CLOUDY    22  11  62 E6        29.65F WCI  14
FLAG ISLAND    CLOUDY    21   9  58 CALM      29.68F
INTL FALLS     CLOUDY    25  14  63 NE7       29.68F WCI  17
WASKISH        LGT SNOW  21  18  86 E13G20    29.68F WCI   9
LONGVILLE      LGT SNOW  21  19  93 NE3       29.60F VSB 3/4
GRAND RAPIDS   SNOW      23  21  92 VRB5      29.60F VSB 1/2 WCI  17
CRANE LAKE     CLOUDY    25  18  74 CALM      29.71F
ORR            CLOUDY    25  12  58 E3        29.63F
COOK           FLURRIES  25  16  68 E8        29.63F WCI  16
WALKER         LGT SNOW  19  17  92 NE6       29.60F VSB 3/4 WCI  10
$$
MNZ012-019>021-037-250300-
   Northeast Minnesota

CITY           SKY/WX    TMP DP  RH WIND       PRES   REMARKS
DULUTH         SNOW      24  21  88 E23G33    29.58F VSB 1/4 WCI   9
ELY            LGT SNOW  23  18  80 E7        29.68F WCI  15
HIBBING        LGT SNOW  23  21  92 E13G21    29.58F VSB 3/4 WCI  11
EVELETH        LGT SNOW  25  21  86 E10G18    29.62F WCI  15
DULUTH HARBOR  HVY SNOW  25  23  93 NE33G40   29.64F VSB<1/4 WCI   7
TWO HARBORS    LGT SNOW  27  21  80 NE20G25   29.61F VSB 3/4 WCI  13
GRAND MARAIS     N/A     27  18  69 NE16G30   29.78F WCI  15
G MARAIS ARPRT CLOUDY    21  14  73 E13G21    29.71F WCI   9
$$
MNZ029>031-032-039>041-046>048-054>057-064-250300-
   West Central Minnesota

CITY           SKY/WX    TMP DP  RH WIND       PRES   REMARKS
FERGUS FALLS   LGT SNOW  19  18  93 CALM      29.60F
WHEATON        LGT SNOW  18  16  93 W6        29.63F WCI   9
MORRIS         LGT SNOW  19  19 100 CALM      29.57F
ALEXANDRIA     LGT SNOW  21  19  92 W5        29.57F VSB 3/4 WCI  15
ELBOW LAKE     LGT SNOW  20  19  96 NE3       29.59F
WADENA         LGT SNOW  19  18  93 NE6       29.58F WCI  11
GLENWOOD       LGT SNOW  21  21 100 CALM      29.57F
APPLETON       FLURRIES  16  14  93 W7        29.60F WCI   6
BENSON         LGT SNOW  19  16  86 NW8       29.60F WCI   9
MADISON        FLURRIES  16  14  93 W5        29.61F WCI   9
WILLMAR        CLOUDY    23  21  93 W8        29.59F WCI  14
$$
MNZ033>034-036-042>043-049>051-058-059-250300-
   Central Minnesota

CITY           SKY/WX    TMP DP  RH WIND       PRES   REMARKS
ST CLOUD       SNOW      26  25  96 E7        29.54F VSB 1/2 WCI  18
SAUK CENTRE    LGT SNOW  23  22  96 CALM      29.56F VSB 3/4
PAYNESVILLE    LGT SNOW  25  25  99 S3        29.56F VSB 1
AITKIN         LGT SNOW  21  19  93 E6        29.58F VSB 3/4 WCI  14
PINE RIVER     LGT SNOW  19  18  93 N3        29.62F VSB 1
BRAINERD       SNOW      24  21  88 E7        29.57F VSB 1/2 WCI  16
STAPLES        LGT SNOW  19  19 100 N5        29.58F WCI  13
LONG PRAIRIE   LGT SNOW  23  21  93 NW5       29.56F VSB 1   WCI  17
LITTLE FALLS   LGT SNOW  27  23  86 CALM      29.56F VSB 1
LITCHFIELD     LGT SNOW  27  27 100 E5        29.55F WCI  21
BUFFALO        LGT SNOW  27  25  93 E7        29.56F WCI  20
MAPLE LAKE     LGT SNOW  28  27  97 E8        29.55F VSB 1   WCI  20
HUTCHINSON     LGT SNOW  27  26  96 E5        29.55F VSB 1   WCI  21
$$
MNZ037-044-045-052-053-250300-
   East Central Minnesota

CITY           SKY/WX    TMP DP  RH WIND       PRES   REMARKS
PRINCETON      LGT SNOW  28  27  93 E5        29.55F VSB 3/4 WCI  23
CAMBRIDGE      SNOW      30  27  86 E6        29.56F VSB 1/2 WCI  24
RUSH CITY      LGT SNOW  28  27  94 E5        29.56F WCI  23
MOOSE LAKE     SNOW      23  21  93 E6        29.57F VSB 1/2 WCI  16
HINCKLEY       LGT SNOW  27  27 100 NE8       29.56F WCI  18
CLOQUET        SNOW      25  21  86 E14G26    29.58F VSB 1/2 WCI  13
MCGREGOR       CLOUDY    25  23  93 E9        29.58F VSB 1/2 WCI  15
$$
MNZ071>073-080-081-089-090-097-098-250300-
   Southwest Minnesota

CITY           SKY/WX    TMP DP  RH WIND       PRES   REMARKS
MONTEVIDEO     FLURRIES  14  12  92 NW7       29.59F WCI   4
GRANITE FALLS  CLOUDY    16  13  90 W8        29.63F WCI   5
CANBY          CLOUDY    15  12  88 SW3       29.61F
MARSHALL       FLURRIES  17  14  88 W7        29.60F WCI   8
REDWOOD FALLS  LGT SNOW  16  14  92 NW10      29.59F FOG     WCI   4
OLIVIA         LGT SNOW  21  19  93 W14       29.58F WCI   8
PIPESTONE      CLOUDY    18  16  93 W15       29.59S WCI   3
WORTHINGTON    FLURRIES  19  17  92 W20       29.60S WCI   3
JACKSON        CLOUDY    21  19  93 W14       29.59F FOG     WCI   8
TRACY          CLOUDY    20  18  93 SW10      29.58F WCI   9
SLAYTON        CLOUDY    20  18  91 W15       29.59F WCI   6
$$
MNZ065>067-074>077-082>085-091>093-250300-
   South Central Minnesota

CITY           SKY/WX    TMP DP  RH WIND       PRES   REMARKS
MANKATO        LGT SNOW  25  24  96 NE3       29.54F VSB 1
NEW ULM        LGT SNOW  25  21  86 W7        29.57F WCI  17
ST JAMES       LGT SNOW  21  21 100 W7        29.58F WCI  13
FAIRMONT       LGT SNOW  23  21  92 W14       29.58F FOG     WCI  11
GLENCOE        LGT SNOW  27  27 100 E7        29.54F VSB 1   WCI  19
FARIBAULT      LGT SNOW  27  25  93 CALM      29.54F VSB 3/4
OWATONNA       LGT SNOW  30  28  93 CALM      29.54F
WASECA         LGT SNOW  30  28  93 E3        29.54F
ALBERT LEA     CLOUDY    30  30 100 CALM      29.53F
$$
MNZ078>079-086>088-094>096-250300-
   Southeast Minnesota

CITY           SKY/WX    TMP DP  RH WIND       PRES   REMARKS
ROCHESTER      LGT SNOW  31  31 100 S5        29.53F VSB 3/4 WCI  26
RED WING       SNOW      32  28  86 CALM      29.57S VSB 1/2
STANTON        SNOW      29  28  93 E3        29.53F VSB 1/2
DODGE CENTER   LGT SNOW  30  28  93 E3        29.52F
WINONA         LGT SNOW  34  34 100 SE7       29.54S WCI  28
AUSTIN         LGT SNOW  30  30 100 S3        29.53F
PRESTON        SNOW      32  31  96 SW6       29.55S VSB 1/4 WCI  26
$$
ABBREVIATIONS USED IN REMARKS
   TC - TEMPERATURES IN CELSIUS
  WCI - WIND CHILL INDEX
   HX - HEAT INDEX
  VSB - VISIBILITY
$$



USA.gov is the U.S. government's official web portal to all federal, state and local government web resources and services.